Time,TemperatureF,DewpointF,PressureIn,WindDirection,WindDirectionDegrees,WindSpeedMPH,WindSpeedGustMPH,Humidity,HourlyPrecipIn,Conditions,Clouds,dailyrainin,SoftwareType,DateUTC
2013-03-13 00:03:00,44.9,43.6,29.65,ENE,65,1.0,6.0,95,0.00,,,0.17,Wunderground v.1.13,2013-03-13 04:03:00,
2013-03-13 00:07:00,44.6,43.0,29.66,SE,128,2.0,6.0,94,0.00,,,0.17,Wunderground v.1.13,2013-03-13 04:07:00,
2013-03-13 00:17:00,43.8,39.9,29.66,East,93,3.0,11.0,86,0.00,,,0.17,Wunderground v.1.13,2013-03-13 04:17:00,
2013-03-13 00:22:00,43.3,38.5,29.66,East,80,4.0,8.0,83,0.00,,,0.17,Wunderground v.1.13,2013-03-13 04:22:00,
2013-03-13 00:27:00,43.2,36.8,29.66,ENE,73,5.0,5.0,78,0.00,,,0.17,Wunderground v.1.13,2013-03-13 04:27:00,
2013-03-13 00:32:00,42.6,35.2,29.66,ESE,104,5.0,5.0,75,0.00,,,0.17,Wunderground v.1.13,2013-03-13 04:32:00,
2013-03-13 00:37:00,42.3,33.9,29.66,East,89,5.0,11.0,72,0.00,,,0.17,Wunderground v.1.13,2013-03-13 04:37:00,
2013-03-13 00:42:00,42.2,33.8,29.66,ENE,75,4.0,12.0,72,0.00,,,0.17,Wunderground v.1.13,2013-03-13 04:42:00,
2013-03-13 00:47:00,41.9,32.1,29.66,SE,140,4.0,12.0,68,0.00,,,0.17,Wunderground v.1.13,2013-03-13 04:47:00,
2013-03-13 00:52:00,41.9,30.6,29.67,East,80,4.0,4.0,64,0.00,,,0.17,Wunderground v.1.13,2013-03-13 04:52:00,
2013-03-13 00:57:00,41.8,29.7,29.67,ESE,102,3.0,13.0,62,0.00,,,0.17,Wunderground v.1.13,2013-03-13 04:57:00,
2013-03-13 01:03:00,41.8,28.1,29.67,East,85,4.0,4.0,58,0.00,,,0.17,Wunderground v.1.13,2013-03-13 05:03:00,
2013-03-13 01:07:00,41.5,28.6,29.68,East,99,4.0,4.0,60,0.00,,,0.17,Wunderground v.1.13,2013-03-13 05:07:00,
2013-03-13 01:12:00,41.1,30.6,29.68,ENE,58,2.0,12.0,66,0.00,,,0.00,Wunderground v.1.13,2013-03-13 05:12:00,
2013-03-13 01:17:00,40.8,30.7,29.68,East,92,2.0,2.0,67,0.00,,,0.00,Wunderground v.1.13,2013-03-13 05:17:00,
2013-03-13 01:22:00,40.5,30.4,29.68,ENE,73,2.0,7.0,67,0.00,,,0.00,Wunderground v.1.13,2013-03-13 05:22:00,
2013-03-13 01:27:00,40.2,30.5,29.68,ENE,73,2.0,2.0,68,0.00,,,0.00,Wunderground v.1.13,2013-03-13 05:27:00,
2013-03-13 01:32:00,39.9,30.9,29.68,ENE,73,1.0,6.0,70,0.00,,,0.00,Wunderground v.1.13,2013-03-13 05:32:00,
2013-03-13 01:37:00,39.2,31.6,29.68,ENE,73,1.0,1.0,74,0.00,,,0.00,Wunderground v.1.13,2013-03-13 05:37:00,
2013-03-13 01:42:00,39.1,33.5,29.68,ENE,73,1.0,1.0,80,0.00,,,0.00,Wunderground v.1.13,2013-03-13 05:42:00,
2013-03-13 01:52:00,38.3,33.9,29.68,ENE,73,1.0,1.0,84,0.00,,,0.00,Wunderground v.1.13,2013-03-13 05:52:00,
2013-03-13 01:57:00,38.2,34.4,29.68,ENE,73,0.0,2.0,86,0.00,,,0.00,Wunderground v.1.13,2013-03-13 05:57:00,
2013-03-13 02:03:00,37.9,34.4,29.68,SE,130,0.0,2.0,87,0.00,,,0.00,Wunderground v.1.13,2013-03-13 06:03:00,
2013-03-13 02:07:00,37.6,34.1,29.68,SE,130,1.0,1.0,87,0.00,,,0.00,Wunderground v.1.13,2013-03-13 06:07:00,
2013-03-13 02:12:00,37.2,34.0,29.68,SE,130,0.0,3.0,88,0.00,,,0.00,Wunderground v.1.13,2013-03-13 06:12:00,
2013-03-13 02:22:00,36.8,34.1,29.68,SE,130,1.0,2.0,90,0.00,,,0.00,Wunderground v.1.13,2013-03-13 06:22:00,
2013-03-13 02:27:00,36.5,33.8,29.68,SE,130,0.0,2.0,90,0.00,,,0.00,Wunderground v.1.13,2013-03-13 06:27:00,
2013-03-13 02:32:00,36.3,33.9,29.68,SE,130,0.0,2.0,91,0.00,,,0.00,Wunderground v.1.13,2013-03-13 06:32:00,
2013-03-13 02:37:00,36.3,34.5,29.68,SE,130,1.0,2.0,93,0.00,,,0.00,Wunderground v.1.13,2013-03-13 06:37:00,
2013-03-13 02:42:00,36.3,34.7,29.68,SE,130,1.0,2.0,94,0.00,,,0.00,Wunderground v.1.13,2013-03-13 06:42:00,
2013-03-13 02:47:00,36.5,35.2,29.68,SE,130,1.0,2.0,95,0.00,,,0.00,Wunderground v.1.13,2013-03-13 06:47:00,
2013-03-13 02:52:00,36.8,35.8,29.68,ENE,64,1.0,3.0,96,0.00,,,0.00,Wunderground v.1.13,2013-03-13 06:52:00,
2013-03-13 02:57:00,37.0,35.7,29.68,East,92,2.0,3.0,95,0.00,,,0.00,Wunderground v.1.13,2013-03-13 06:57:00,
2013-03-13 03:03:00,37.3,35.7,29.68,East,88,3.0,6.0,94,0.00,,,0.00,Wunderground v.1.13,2013-03-13 07:03:00,
2013-03-13 03:07:00,37.6,36.0,29.68,ESE,107,3.0,3.0,94,0.00,,,0.00,Wunderground v.1.13,2013-03-13 07:07:00,
2013-03-13 03:12:00,37.6,32.3,29.68,East,83,3.0,6.0,81,0.00,,,0.00,Wunderground v.1.13,2013-03-13 07:12:00,
2013-03-13 03:17:00,37.9,30.7,29.68,East,82,3.0,6.0,75,0.00,,,0.00,Wunderground v.1.13,2013-03-13 07:17:00,
2013-03-13 03:25:00,37.0,25.6,29.68,East,90,2.0,6.0,63,0.00,,,0.00,Wunderground v.1.13,2013-03-13 07:25:00,
2013-03-13 03:30:00,37.0,25.6,29.68,East,90,2.0,6.0,63,0.00,,,0.00,Wunderground v.1.13,2013-03-13 07:30:00,
2013-03-13 03:35:00,36.8,27.6,29.68,ESE,113,2.0,5.0,69,0.00,,,0.00,Wunderground v.1.13,2013-03-13 07:35:00,
2013-03-13 03:40:00,36.8,27.6,29.68,ESE,113,2.0,5.0,69,0.00,,,0.00,Wunderground v.1.13,2013-03-13 07:40:00,
2013-03-13 03:45:00,36.6,27.7,29.68,ESE,113,4.0,7.0,70,0.00,,,0.00,Wunderground v.1.13,2013-03-13 07:45:00,
2013-03-13 03:50:00,36.6,27.7,29.68,ESE,113,4.0,7.0,70,0.00,,,0.00,Wunderground v.1.13,2013-03-13 07:50:00,
2013-03-13 03:55:00,37.0,24.4,29.68,East,90,5.0,10.0,60,0.00,,,0.00,Wunderground v.1.13,2013-03-13 07:55:00,
2013-03-13 04:00:00,37.0,24.4,29.68,East,90,5.0,10.0,60,0.00,,,0.00,Wunderground v.1.13,2013-03-13 08:00:00,
2013-03-13 04:05:00,37.3,22.6,29.68,ESE,113,5.0,12.0,55,0.00,,,0.00,Wunderground v.1.13,2013-03-13 08:05:00,
2013-03-13 04:10:00,37.3,22.6,29.68,ESE,113,5.0,12.0,55,0.00,,,0.00,Wunderground v.1.13,2013-03-13 08:10:00,
2013-03-13 04:15:00,37.6,19.2,29.68,East,90,4.0,11.0,47,0.00,,,0.00,Wunderground v.1.13,2013-03-13 08:15:00,
2013-03-13 04:20:00,37.6,19.2,29.68,East,90,4.0,11.0,47,0.00,,,0.00,Wunderground v.1.13,2013-03-13 08:20:00,
2013-03-13 04:25:00,37.8,17.3,29.69,ESE,113,5.0,11.0,43,0.00,,,0.00,Wunderground v.1.13,2013-03-13 08:25:00,
2013-03-13 04:30:00,37.8,17.3,29.69,ESE,113,5.0,11.0,43,0.00,,,0.00,Wunderground v.1.13,2013-03-13 08:30:00,
2013-03-13 04:35:00,37.9,16.8,29.69,East,90,3.0,7.0,42,0.00,,,0.00,Wunderground v.1.13,2013-03-13 08:35:00,
2013-03-13 04:40:00,37.9,16.8,29.69,East,90,3.0,7.0,42,0.00,,,0.00,Wunderground v.1.13,2013-03-13 08:40:00,
2013-03-13 04:45:00,37.9,15.1,29.70,East,90,4.0,8.0,39,0.00,,,0.00,Wunderground v.1.13,2013-03-13 08:45:00,
2013-03-13 04:50:00,37.9,15.1,29.70,East,90,4.0,8.0,39,0.00,,,0.00,Wunderground v.1.13,2013-03-13 08:50:00,
2013-03-13 04:55:00,37.8,17.3,29.70,ESE,113,2.0,7.0,43,0.00,,,0.00,Wunderground v.1.13,2013-03-13 08:55:00,
2013-03-13 05:00:00,37.8,17.3,29.70,ESE,113,2.0,7.0,43,0.00,,,0.00,Wunderground v.1.13,2013-03-13 09:00:00,
2013-03-13 05:05:00,37.6,15.4,29.70,ESE,113,4.0,8.0,40,0.00,,,0.00,Wunderground v.1.13,2013-03-13 09:05:00,
2013-03-13 05:10:00,37.6,15.4,29.70,ESE,113,4.0,8.0,40,0.00,,,0.00,Wunderground v.1.13,2013-03-13 09:10:00,
2013-03-13 05:15:00,37.6,13.0,29.69,ESE,113,5.0,9.0,36,0.00,,,0.00,Wunderground v.1.13,2013-03-13 09:15:00,
2013-03-13 05:20:00,37.6,13.0,29.69,ESE,113,5.0,9.0,36,0.00,,,0.00,Wunderground v.1.13,2013-03-13 09:20:00,
2013-03-13 05:25:00,37.6,13.0,29.69,East,90,4.0,10.0,36,0.00,,,0.00,Wunderground v.1.13,2013-03-13 09:25:00,
2013-03-13 05:30:00,37.6,13.0,29.69,East,90,4.0,10.0,36,0.00,,,0.00,Wunderground v.1.13,2013-03-13 09:30:00,
2013-03-13 05:35:00,37.5,13.6,29.69,ESE,113,1.0,5.0,37,0.00,,,0.00,Wunderground v.1.13,2013-03-13 09:35:00,
2013-03-13 05:40:00,37.5,13.6,29.69,ESE,113,1.0,5.0,37,0.00,,,0.00,Wunderground v.1.13,2013-03-13 09:40:00,
2013-03-13 05:45:00,36.9,17.5,29.68,SE,135,0.0,3.0,45,0.00,,,0.00,Wunderground v.1.13,2013-03-13 09:45:00,
2013-03-13 05:50:00,36.9,17.5,29.68,SE,135,0.0,3.0,45,0.00,,,0.00,Wunderground v.1.13,2013-03-13 09:50:00,
2013-03-13 05:55:00,36.3,21.2,29.68,NE,45,0.0,3.0,54,0.00,,,0.00,Wunderground v.1.13,2013-03-13 09:55:00,
2013-03-13 06:00:00,36.3,21.2,29.68,NE,45,0.0,3.0,54,0.00,,,0.00,Wunderground v.1.13,2013-03-13 10:00:00,
2013-03-13 06:05:00,36.0,22.2,29.68,SE,135,1.0,5.0,57,0.00,,,0.00,Wunderground v.1.13,2013-03-13 10:05:00,
2013-03-13 06:10:00,36.0,22.2,29.68,SE,135,1.0,5.0,57,0.00,,,0.00,Wunderground v.1.13,2013-03-13 10:10:00,
2013-03-13 06:15:00,36.2,22.8,29.68,ENE,68,2.0,6.0,58,0.00,,,0.00,Wunderground v.1.13,2013-03-13 10:15:00,
2013-03-13 06:20:00,36.2,22.8,29.68,ENE,68,2.0,6.0,58,0.00,,,0.00,Wunderground v.1.13,2013-03-13 10:20:00,
2013-03-13 06:25:00,36.3,21.7,29.68,East,90,2.0,7.0,55,0.00,,,0.00,Wunderground v.1.13,2013-03-13 10:25:00,
2013-03-13 06:30:00,36.3,21.7,29.68,East,90,2.0,7.0,55,0.00,,,0.00,Wunderground v.1.13,2013-03-13 10:30:00,
2013-03-13 06:35:00,36.9,20.0,29.68,East,90,2.0,7.0,50,0.00,,,0.00,Wunderground v.1.13,2013-03-13 10:35:00,
2013-03-13 06:40:00,36.9,20.0,29.68,East,90,2.0,7.0,50,0.00,,,0.00,Wunderground v.1.13,2013-03-13 10:40:00,
2013-03-13 06:45:00,37.5,18.1,29.68,ESE,113,3.0,10.0,45,0.00,,,0.00,Wunderground v.1.13,2013-03-13 10:45:00,
2013-03-13 06:50:00,37.5,18.1,29.68,ESE,113,3.0,10.0,45,0.00,,,0.00,Wunderground v.1.13,2013-03-13 10:50:00,
2013-03-13 06:55:00,38.0,14.6,29.68,ESE,113,4.0,11.0,38,0.00,,,0.00,Wunderground v.1.13,2013-03-13 10:55:00,
2013-03-13 07:00:00,38.0,14.6,29.68,ESE,113,4.0,11.0,38,0.00,,,0.00,Wunderground v.1.13,2013-03-13 11:00:00,
2013-03-13 07:05:00,38.8,11.4,29.68,ENE,68,3.0,8.0,32,0.00,,,0.00,Wunderground v.1.13,2013-03-13 11:05:00,
2013-03-13 07:10:00,38.8,11.4,29.68,ENE,68,3.0,8.0,32,0.00,,,0.00,Wunderground v.1.13,2013-03-13 11:10:00,
2013-03-13 07:15:00,39.2,8.8,29.67,SE,135,5.0,14.0,28,0.00,,,0.00,Wunderground v.1.13,2013-03-13 11:15:00,
2013-03-13 07:20:00,39.2,8.8,29.67,SE,135,5.0,14.0,28,0.00,,,0.00,Wunderground v.1.13,2013-03-13 11:20:00,
2013-03-13 07:25:00,39.6,4.8,29.67,East,90,6.0,17.0,23,0.00,,,0.00,Wunderground v.1.13,2013-03-13 11:25:00,
2013-03-13 07:30:00,39.6,4.8,29.67,East,90,6.0,17.0,23,0.00,,,0.00,Wunderground v.1.13,2013-03-13 11:30:00,
2013-03-13 07:35:00,39.9,-0.3,29.67,ESE,113,6.0,16.0,18,0.00,,,0.00,Wunderground v.1.13,2013-03-13 11:35:00,
2013-03-13 07:40:00,39.9,-0.3,29.67,ESE,113,6.0,16.0,18,0.00,,,0.00,Wunderground v.1.13,2013-03-13 11:40:00,
2013-03-13 07:45:00,40.2,-3.9,29.67,SE,135,5.0,13.0,15,0.00,,,0.00,Wunderground v.1.13,2013-03-13 11:45:00,
2013-03-13 07:50:00,40.2,-3.9,29.67,SE,135,5.0,13.0,15,0.00,,,0.00,Wunderground v.1.13,2013-03-13 11:50:00,
2013-03-13 07:55:00,40.3,-8.4,29.67,SE,135,5.0,10.0,12,0.00,,,0.00,Wunderground v.1.13,2013-03-13 11:55:00,
2013-03-13 08:00:00,40.3,-8.4,29.67,SE,135,5.0,10.0,12,0.00,,,0.00,Wunderground v.1.13,2013-03-13 12:00:00,
2013-03-13 08:05:00,40.5,-11.9,29.67,SE,135,6.0,17.0,10,0.00,,,0.00,Wunderground v.1.13,2013-03-13 12:05:00,
2013-03-13 08:10:00,40.5,-11.9,29.67,SE,135,6.0,17.0,10,0.00,,,0.00,Wunderground v.1.13,2013-03-13 12:10:00,
2013-03-13 08:15:00,41.2,-13.5,29.67,SE,135,4.0,11.0,9,0.00,,,0.00,Wunderground v.1.13,2013-03-13 12:15:00,
2013-03-13 08:20:00,41.2,-13.5,29.67,SE,135,4.0,11.0,9,0.00,,,0.00,Wunderground v.1.13,2013-03-13 12:20:00,
2013-03-13 08:25:00,41.6,-24.6,29.68,ESE,113,5.0,14.0,5,0.00,,,0.00,Wunderground v.1.13,2013-03-13 12:25:00,
2013-03-13 08:30:00,41.6,-24.6,29.68,ESE,113,5.0,14.0,5,0.00,,,0.00,Wunderground v.1.13,2013-03-13 12:30:00,
2013-03-13 08:35:00,41.8,-28.6,29.68,SE,135,5.0,17.0,4,0.00,,,0.00,Wunderground v.1.13,2013-03-13 12:35:00,
2013-03-13 08:40:00,41.8,-28.6,29.68,SE,135,5.0,17.0,4,0.00,,,0.00,Wunderground v.1.13,2013-03-13 12:40:00,
2013-03-13 08:45:00,42.2,-33.6,29.68,SE,135,5.0,13.0,3,0.00,,,0.00,Wunderground v.1.13,2013-03-13 12:45:00,
2013-03-13 08:50:00,42.2,-33.6,29.68,SE,135,5.0,13.0,3,0.00,,,0.00,Wunderground v.1.13,2013-03-13 12:50:00,
2013-03-13 08:55:00,42.1,-52.4,29.67,SE,135,6.0,12.0,1,0.00,,,0.00,Wunderground v.1.13,2013-03-13 12:55:00,
2013-03-13 09:00:00,42.1,-52.4,29.67,SE,135,6.0,12.0,1,0.00,,,0.00,Wunderground v.1.13,2013-03-13 13:00:00,
2013-03-13 09:05:00,42.2,-99.9,29.67,SE,135,7.0,18.0,0,0.00,,,0.00,Wunderground v.1.13,2013-03-13 13:05:00,
2013-03-13 09:10:00,42.2,-99.9,29.67,SE,135,7.0,18.0,0,0.00,,,0.00,Wunderground v.1.13,2013-03-13 13:10:00,
2013-03-13 09:15:00,42.5,-99.9,29.67,SE,135,8.0,16.0,0,0.00,,,0.00,Wunderground v.1.13,2013-03-13 13:15:00,
2013-03-13 09:20:00,42.5,-99.9,29.67,SE,135,8.0,16.0,0,0.00,,,0.00,Wunderground v.1.13,2013-03-13 13:20:00,
2013-03-13 09:25:00,42.9,-99.9,29.66,ESE,113,6.0,17.0,-32768,0.00,,,0.00,Wunderground v.1.13,2013-03-13 13:25:00,
2013-03-13 09:30:00,42.9,-99.9,29.66,ESE,113,6.0,17.0,-32768,0.00,,,0.00,Wunderground v.1.13,2013-03-13 13:30:00,
2013-03-13 09:35:00,42.8,-99.9,29.66,ESE,113,6.0,12.0,0,0.00,,,0.00,Wunderground v.1.13,2013-03-13 13:35:00,
2013-03-13 09:40:00,42.8,-99.9,29.66,ESE,113,6.0,12.0,0,0.00,,,0.00,Wunderground v.1.13,2013-03-13 13:40:00,
2013-03-13 09:45:00,42.8,-99.9,29.66,SE,135,7.0,12.0,0,0.00,,,0.00,Wunderground v.1.13,2013-03-13 13:45:00,
2013-03-13 09:50:00,42.8,-99.9,29.66,SE,135,7.0,12.0,0,0.00,,,0.00,Wunderground v.1.13,2013-03-13 13:50:00,
2013-03-13 09:55:00,43.1,-99.9,29.66,ESE,113,5.0,12.0,0,0.00,,,0.00,Wunderground v.1.13,2013-03-13 13:55:00,
2013-03-13 10:00:00,43.1,-99.9,29.66,ESE,113,5.0,12.0,0,0.00,,,0.00,Wunderground v.1.13,2013-03-13 14:00:00,
2013-03-13 10:05:00,42.9,-99.9,29.66,SE,135,6.0,11.0,0,0.00,,,0.00,Wunderground v.1.13,2013-03-13 14:05:00,
2013-03-13 10:10:00,42.9,-99.9,29.66,SE,135,6.0,11.0,0,0.00,,,0.00,Wunderground v.1.13,2013-03-13 14:10:00,
2013-03-13 10:15:00,42.6,-99.9,29.67,SE,135,4.0,16.0,0,0.00,,,0.00,Wunderground v.1.13,2013-03-13 14:15:00,
2013-03-13 10:20:00,42.6,-99.9,29.67,SE,135,4.0,16.0,0,0.00,,,0.00,Wunderground v.1.13,2013-03-13 14:20:00,
2013-03-13 10:25:00,43.2,-99.9,29.67,SE,135,4.0,14.0,0,0.00,,,0.00,Wunderground v.1.13,2013-03-13 14:25:00,
2013-03-13 10:30:00,43.2,-99.9,29.67,SE,135,4.0,14.0,0,0.00,,,0.00,Wunderground v.1.13,2013-03-13 14:30:00,
2013-03-13 10:35:00,42.8,-99.9,29.67,SE,135,4.0,11.0,0,0.00,,,0.00,Wunderground v.1.13,2013-03-13 14:35:00,
2013-03-13 10:40:00,42.8,-99.9,29.67,SE,135,4.0,11.0,0,0.00,,,0.00,Wunderground v.1.13,2013-03-13 14:40:00,
2013-03-13 10:45:00,42.8,-99.9,29.67,SE,135,5.0,9.0,0,0.00,,,0.00,Wunderground v.1.13,2013-03-13 14:45:00,
2013-03-13 10:50:00,42.8,-99.9,29.67,SE,135,5.0,9.0,0,0.00,,,0.00,Wunderground v.1.13,2013-03-13 14:50:00,
2013-03-13 10:55:00,43.2,-99.9,29.66,ESE,113,5.0,11.0,0,0.00,,,0.00,Wunderground v.1.13,2013-03-13 14:55:00,
2013-03-13 11:00:00,43.2,-99.9,29.66,ESE,113,5.0,11.0,0,0.00,,,0.00,Wunderground v.1.13,2013-03-13 15:00:00,
2013-03-13 11:05:00,43.5,-99.9,29.66,SE,135,4.0,10.0,0,0.00,,,0.00,Wunderground v.1.13,2013-03-13 15:05:00,
2013-03-13 11:10:00,43.5,-99.9,29.66,SE,135,4.0,10.0,0,0.00,,,0.00,Wunderground v.1.13,2013-03-13 15:10:00,
2013-03-13 11:15:00,43.6,-99.9,29.66,ESE,113,5.0,12.0,0,0.00,,,0.00,Wunderground v.1.13,2013-03-13 15:15:00,
2013-03-13 11:20:00,43.6,-99.9,29.66,ESE,113,5.0,12.0,0,0.00,,,0.00,Wunderground v.1.13,2013-03-13 15:20:00,
2013-03-13 11:25:00,43.6,-99.9,29.66,East,90,7.0,14.0,0,0.00,,,0.00,Wunderground v.1.13,2013-03-13 15:25:00,
2013-03-13 11:30:00,43.6,-99.9,29.66,East,90,7.0,14.0,0,0.00,,,0.00,Wunderground v.1.13,2013-03-13 15:30:00,
2013-03-13 11:35:00,43.5,-99.9,29.66,SE,135,6.0,16.0,0,0.00,,,0.00,Wunderground v.1.13,2013-03-13 15:35:00,
2013-03-13 11:40:00,43.5,-99.9,29.66,SE,135,6.0,16.0,0,0.00,,,0.00,Wunderground v.1.13,2013-03-13 15:40:00,
2013-03-13 11:45:00,43.8,-99.9,29.67,ESE,113,5.0,12.0,0,0.00,,,0.00,Wunderground v.1.13,2013-03-13 15:45:00,
2013-03-13 11:50:00,43.8,-99.9,29.67,ESE,113,5.0,12.0,0,0.00,,,0.00,Wunderground v.1.13,2013-03-13 15:50:00,
2013-03-13 11:55:00,43.8,-99.9,29.65,ESE,113,4.0,11.0,0,0.00,,,0.00,Wunderground v.1.13,2013-03-13 15:55:00,
2013-03-13 12:00:00,43.8,-99.9,29.65,ESE,113,4.0,11.0,0,0.00,,,0.00,Wunderground v.1.13,2013-03-13 16:00:00,
2013-03-13 12:05:00,43.8,43.8,29.65,ESE,113,6.0,16.0,100,0.00,,,0.00,Wunderground v.1.13,2013-03-13 16:05:00,
2013-03-13 12:10:00,43.8,43.8,29.65,ESE,113,6.0,16.0,100,0.00,,,0.00,Wunderground v.1.13,2013-03-13 16:10:00,
2013-03-13 12:15:00,44.5,44.5,29.65,ESE,113,7.0,18.0,100,0.00,,,0.00,Wunderground v.1.13,2013-03-13 16:15:00,
2013-03-13 12:20:00,44.5,44.5,29.65,ESE,113,7.0,18.0,100,0.00,,,0.00,Wunderground v.1.13,2013-03-13 16:20:00,
2013-03-13 12:25:00,45.4,45.4,29.65,ESE,113,7.0,17.0,100,0.00,,,0.00,Wunderground v.1.13,2013-03-13 16:25:00,
2013-03-13 12:30:00,45.4,45.4,29.65,ESE,113,7.0,17.0,100,0.00,,,0.00,Wunderground v.1.13,2013-03-13 16:30:00,
2013-03-13 12:35:00,44.8,44.8,29.65,ESE,113,7.0,18.0,100,0.00,,,0.00,Wunderground v.1.13,2013-03-13 16:35:00,
2013-03-13 12:40:00,44.8,44.8,29.65,ESE,113,7.0,18.0,100,0.00,,,0.00,Wunderground v.1.13,2013-03-13 16:40:00,
2013-03-13 12:45:00,44.6,44.6,29.65,ESE,113,7.0,14.0,100,0.00,,,0.00,Wunderground v.1.13,2013-03-13 16:45:00,
2013-03-13 12:50:00,44.6,44.6,29.65,ESE,113,7.0,14.0,100,0.00,,,0.00,Wunderground v.1.13,2013-03-13 16:50:00,
2013-03-13 12:55:00,44.3,44.3,29.65,ESE,113,7.0,14.0,100,0.00,,,0.00,Wunderground v.1.13,2013-03-13 16:55:00,
2013-03-13 13:00:00,44.3,44.3,29.65,ESE,113,7.0,14.0,100,0.00,,,0.00,Wunderground v.1.13,2013-03-13 17:00:00,
2013-03-13 13:05:00,44.6,44.6,29.65,ESE,113,6.0,13.0,100,0.00,,,0.00,Wunderground v.1.13,2013-03-13 17:05:00,
2013-03-13 13:10:00,44.6,44.6,29.65,ESE,113,6.0,13.0,100,0.00,,,0.00,Wunderground v.1.13,2013-03-13 17:10:00,
2013-03-13 13:15:00,44.1,44.1,29.64,SE,135,6.0,14.0,100,0.00,,,0.00,Wunderground v.1.13,2013-03-13 17:15:00,
2013-03-13 13:20:00,44.1,44.1,29.64,SE,135,6.0,14.0,100,0.00,,,0.00,Wunderground v.1.13,2013-03-13 17:20:00,
2013-03-13 13:25:00,44.3,44.3,29.64,East,90,5.0,12.0,100,0.00,,,0.00,Wunderground v.1.13,2013-03-13 17:25:00,
2013-03-13 13:30:00,44.3,44.3,29.64,East,90,5.0,12.0,100,0.00,,,0.00,Wunderground v.1.13,2013-03-13 17:30:00,
2013-03-13 13:35:00,45.1,45.1,29.64,East,90,6.0,17.0,100,0.00,,,0.00,Wunderground v.1.13,2013-03-13 17:35:00,
2013-03-13 13:40:00,45.1,45.1,29.64,East,90,6.0,17.0,100,0.00,,,0.00,Wunderground v.1.13,2013-03-13 17:40:00,
2013-03-13 13:45:00,44.5,44.5,29.63,SE,135,6.0,14.0,100,0.00,,,0.00,Wunderground v.1.13,2013-03-13 17:45:00,
2013-03-13 13:50:00,44.5,44.5,29.63,SE,135,6.0,14.0,100,0.00,,,0.00,Wunderground v.1.13,2013-03-13 17:50:00,
2013-03-13 13:55:00,44.1,44.1,29.63,SE,135,3.0,8.0,100,0.00,,,0.00,Wunderground v.1.13,2013-03-13 17:55:00,
2013-03-13 14:00:00,44.1,44.1,29.63,SE,135,3.0,8.0,100,0.00,,,0.00,Wunderground v.1.13,2013-03-13 18:00:00,
2013-03-13 14:05:00,44.6,44.6,29.63,East,90,3.0,8.0,100,0.00,,,0.00,Wunderground v.1.13,2013-03-13 18:05:00,
2013-03-13 14:10:00,44.6,44.6,29.63,East,90,3.0,8.0,100,0.00,,,0.00,Wunderground v.1.13,2013-03-13 18:10:00,
2013-03-13 14:15:00,44.2,44.2,29.63,ESE,113,5.0,14.0,100,0.00,,,0.00,Wunderground v.1.13,2013-03-13 18:15:00,
2013-03-13 14:20:00,44.2,44.2,29.63,ESE,113,5.0,14.0,100,0.00,,,0.00,Wunderground v.1.13,2013-03-13 18:20:00,
2013-03-13 14:25:00,44.1,44.1,29.63,SE,135,4.0,14.0,100,0.00,,,0.00,Wunderground v.1.13,2013-03-13 18:25:00,
2013-03-13 14:30:00,44.1,44.1,29.63,SE,135,4.0,14.0,100,0.00,,,0.00,Wunderground v.1.13,2013-03-13 18:30:00,
2013-03-13 14:35:00,44.6,44.6,29.63,East,90,5.0,13.0,100,0.00,,,0.00,Wunderground v.1.13,2013-03-13 18:35:00,
2013-03-13 14:40:00,44.6,44.6,29.63,East,90,5.0,13.0,100,0.00,,,0.00,Wunderground v.1.13,2013-03-13 18:40:00,
2013-03-13 14:45:00,44.3,44.3,29.63,SE,135,6.0,16.0,100,0.00,,,0.00,Wunderground v.1.13,2013-03-13 18:45:00,
2013-03-13 14:50:00,44.3,44.3,29.63,SE,135,6.0,16.0,100,0.00,,,0.00,Wunderground v.1.13,2013-03-13 18:50:00,
2013-03-13 14:55:00,44.1,44.1,29.63,SE,135,4.0,11.0,100,0.00,,,0.00,Wunderground v.1.13,2013-03-13 18:55:00,
2013-03-13 15:00:00,44.1,44.1,29.63,SE,135,4.0,11.0,100,0.00,,,0.00,Wunderground v.1.13,2013-03-13 19:00:00,
2013-03-13 15:05:00,44.6,44.6,29.63,SE,135,4.0,13.0,100,0.00,,,0.00,Wunderground v.1.13,2013-03-13 19:05:00,
2013-03-13 15:10:00,44.6,44.6,29.63,SE,135,4.0,13.0,100,0.00,,,0.00,Wunderground v.1.13,2013-03-13 19:10:00,
2013-03-13 15:15:00,45.2,45.2,29.62,ESE,113,4.0,16.0,100,0.00,,,0.00,Wunderground v.1.13,2013-03-13 19:15:00,
2013-03-13 15:20:00,45.2,45.2,29.62,ESE,113,4.0,16.0,100,0.00,,,0.00,Wunderground v.1.13,2013-03-13 19:20:00,
2013-03-13 15:25:00,44.9,44.9,29.63,ESE,113,6.0,13.0,100,0.00,,,0.00,Wunderground v.1.13,2013-03-13 19:25:00,
2013-03-13 15:30:00,44.9,44.9,29.63,ESE,113,6.0,13.0,100,0.00,,,0.00,Wunderground v.1.13,2013-03-13 19:30:00,
2013-03-13 15:35:00,45.2,45.2,29.63,SE,135,4.0,13.0,100,0.00,,,0.00,Wunderground v.1.13,2013-03-13 19:35:00,
2013-03-13 15:40:00,45.2,45.2,29.63,SE,135,4.0,13.0,100,0.00,,,0.00,Wunderground v.1.13,2013-03-13 19:40:00,
2013-03-13 15:45:00,44.6,44.6,29.64,SE,135,5.0,14.0,100,0.00,,,0.00,Wunderground v.1.13,2013-03-13 19:45:00,
2013-03-13 15:50:00,44.6,44.6,29.64,SE,135,5.0,14.0,100,0.00,,,0.00,Wunderground v.1.13,2013-03-13 19:50:00,
2013-03-13 15:55:00,44.5,44.5,29.64,SE,135,5.0,17.0,100,0.00,,,0.00,Wunderground v.1.13,2013-03-13 19:55:00,
2013-03-13 16:00:00,44.5,44.5,29.64,SE,135,5.0,17.0,100,0.00,,,0.00,Wunderground v.1.13,2013-03-13 20:00:00,
2013-03-13 16:05:00,44.1,44.1,29.64,ESE,113,6.0,16.0,100,0.00,,,0.00,Wunderground v.1.13,2013-03-13 20:05:00,
2013-03-13 16:10:00,44.1,44.1,29.64,ESE,113,6.0,16.0,100,0.00,,,0.00,Wunderground v.1.13,2013-03-13 20:10:00,
2013-03-13 16:15:00,43.6,43.6,29.64,ESE,113,3.0,7.0,100,0.00,,,0.00,Wunderground v.1.13,2013-03-13 20:15:00,
2013-03-13 16:20:00,43.6,43.6,29.64,ESE,113,3.0,7.0,100,0.00,,,0.00,Wunderground v.1.13,2013-03-13 20:20:00,
2013-03-13 16:25:00,43.3,43.3,29.64,East,90,3.0,10.0,100,0.00,,,0.00,Wunderground v.1.13,2013-03-13 20:25:00,
2013-03-13 16:30:00,43.3,43.3,29.64,East,90,3.0,10.0,100,0.00,,,0.00,Wunderground v.1.13,2013-03-13 20:30:00,
2013-03-13 16:35:00,43.1,43.1,29.64,ESE,113,3.0,11.0,100,0.00,,,0.00,Wunderground v.1.13,2013-03-13 20:35:00,
2013-03-13 16:40:00,43.1,43.1,29.64,ESE,113,3.0,11.0,100,0.00,,,0.00,Wunderground v.1.13,2013-03-13 20:40:00,
2013-03-13 16:45:00,43.2,43.2,29.64,SE,135,5.0,12.0,100,0.00,,,0.00,Wunderground v.1.13,2013-03-13 20:45:00,
2013-03-13 16:50:00,43.2,43.2,29.64,SE,135,5.0,12.0,100,0.00,,,0.00,Wunderground v.1.13,2013-03-13 20:50:00,
2013-03-13 16:55:00,42.9,42.9,29.64,ESE,113,3.0,9.0,100,0.00,,,0.00,Wunderground v.1.13,2013-03-13 20:55:00,
2013-03-13 17:00:00,42.9,42.9,29.64,ESE,113,3.0,9.0,100,0.00,,,0.00,Wunderground v.1.13,2013-03-13 21:00:00,
2013-03-13 17:05:00,42.5,42.5,29.64,East,90,3.0,10.0,100,0.00,,,0.00,Wunderground v.1.13,2013-03-13 21:05:00,
2013-03-13 17:10:00,42.5,42.5,29.64,East,90,3.0,10.0,100,0.00,,,0.00,Wunderground v.1.13,2013-03-13 21:10:00,
2013-03-13 17:15:00,42.1,42.1,29.65,East,90,3.0,8.0,100,0.00,,,0.00,Wunderground v.1.13,2013-03-13 21:15:00,
2013-03-13 17:20:00,42.1,42.1,29.65,East,90,3.0,8.0,100,0.00,,,0.00,Wunderground v.1.13,2013-03-13 21:20:00,
2013-03-13 17:25:00,41.5,41.5,29.65,East,90,3.0,8.0,100,0.00,,,0.00,Wunderground v.1.13,2013-03-13 21:25:00,
2013-03-13 17:30:00,41.5,41.5,29.65,East,90,3.0,8.0,100,0.00,,,0.00,Wunderground v.1.13,2013-03-13 21:30:00,
2013-03-13 17:35:00,41.1,41.1,29.65,East,90,2.0,8.0,100,0.00,,,0.00,Wunderground v.1.13,2013-03-13 21:35:00,
2013-03-13 17:40:00,41.1,41.1,29.65,East,90,2.0,8.0,100,0.00,,,0.00,Wunderground v.1.13,2013-03-13 21:40:00,
2013-03-13 17:45:00,40.5,40.5,29.65,ESE,113,1.0,5.0,100,0.00,,,0.00,Wunderground v.1.13,2013-03-13 21:45:00,
2013-03-13 17:50:00,40.5,40.5,29.65,ESE,113,1.0,5.0,100,0.00,,,0.00,Wunderground v.1.13,2013-03-13 21:50:00,
2013-03-13 17:55:00,40.1,40.1,29.66,ESE,113,1.0,4.0,100,0.00,,,0.00,Wunderground v.1.13,2013-03-13 21:55:00,
2013-03-13 18:00:00,40.1,40.1,29.66,ESE,113,1.0,4.0,100,0.00,,,0.00,Wunderground v.1.13,2013-03-13 22:00:00,
2013-03-13 18:05:00,39.8,39.8,29.66,East,90,2.0,6.0,100,0.00,,,0.00,Wunderground v.1.13,2013-03-13 22:05:00,
2013-03-13 18:10:00,39.8,39.8,29.66,East,90,2.0,6.0,100,0.00,,,0.00,Wunderground v.1.13,2013-03-13 22:10:00,
2013-03-13 18:15:00,39.6,39.6,29.66,East,90,1.0,5.0,100,0.00,,,0.00,Wunderground v.1.13,2013-03-13 22:15:00,
2013-03-13 18:20:00,39.6,39.6,29.66,East,90,1.0,5.0,100,0.00,,,0.00,Wunderground v.1.13,2013-03-13 22:20:00,
2013-03-13 18:25:00,39.2,39.2,29.67,ESE,113,0.0,2.0,100,0.00,,,0.00,Wunderground v.1.13,2013-03-13 22:25:00,
2013-03-13 18:30:00,39.2,39.2,29.67,ESE,113,0.0,2.0,100,0.00,,,0.00,Wunderground v.1.13,2013-03-13 22:30:00,
2013-03-13 18:35:00,38.3,-99.9,29.67,ESE,113,0.0,2.0,0,0.00,,,0.00,Wunderground v.1.13,2013-03-13 22:35:00,
2013-03-13 18:40:00,38.3,-99.9,29.67,ESE,113,0.0,2.0,0,0.00,,,0.00,Wunderground v.1.13,2013-03-13 22:40:00,
2013-03-13 18:45:00,37.8,-99.9,29.66,ESE,113,2.0,5.0,0,0.00,,,0.00,Wunderground v.1.13,2013-03-13 22:45:00,
2013-03-13 18:50:00,37.8,-99.9,29.66,ESE,113,2.0,5.0,0,0.00,,,0.00,Wunderground v.1.13,2013-03-13 22:50:00,
2013-03-13 18:55:00,38.0,38.0,29.67,East,90,2.0,6.0,100,0.00,,,0.00,Wunderground v.1.13,2013-03-13 22:55:00,
2013-03-13 19:00:00,38.0,38.0,29.67,East,90,2.0,6.0,100,0.00,,,0.00,Wunderground v.1.13,2013-03-13 23:00:00,
2013-03-13 19:05:00,37.8,-99.9,29.67,East,90,1.0,5.0,0,0.00,,,0.00,Wunderground v.1.13,2013-03-13 23:05:00,
2013-03-13 19:10:00,37.8,-99.9,29.67,East,90,1.0,5.0,0,0.00,,,0.00,Wunderground v.1.13,2013-03-13 23:10:00,
2013-03-13 19:15:00,36.6,-99.9,29.67,East,90,0.0,3.0,0,0.00,,,0.00,Wunderground v.1.13,2013-03-13 23:15:00,
2013-03-13 19:20:00,36.6,-99.9,29.67,East,90,0.0,3.0,0,0.00,,,0.00,Wunderground v.1.13,2013-03-13 23:20:00,
2013-03-13 19:25:00,35.9,-99.9,29.67,East,90,0.0,4.0,0,0.00,,,0.00,Wunderground v.1.13,2013-03-13 23:25:00,
2013-03-13 19:30:00,35.9,-99.9,29.67,East,90,0.0,4.0,0,0.00,,,0.00,Wunderground v.1.13,2013-03-13 23:30:00,
2013-03-13 19:35:00,35.2,-45.4,29.67,East,90,0.0,1.0,2,0.00,,,0.00,Wunderground v.1.13,2013-03-13 23:35:00,
2013-03-13 19:40:00,35.2,-45.4,29.67,East,90,0.0,1.0,2,0.00,,,0.00,Wunderground v.1.13,2013-03-13 23:40:00,
2013-03-13 19:45:00,34.3,-29.9,29.69,East,90,0.0,2.0,5,0.00,,,0.00,Wunderground v.1.13,2013-03-13 23:45:00,
2013-03-13 19:50:00,34.3,-29.9,29.69,East,90,0.0,2.0,5,0.00,,,0.00,Wunderground v.1.13,2013-03-13 23:50:00,
2013-03-13 19:55:00,33.4,-12.3,29.69,East,90,0.0,2.0,13,0.00,,,0.00,Wunderground v.1.13,2013-03-13 23:55:00,
2013-03-13 20:00:00,33.4,-12.3,29.69,East,90,0.0,2.0,13,0.00,,,0.00,Wunderground v.1.13,2013-03-14 00:00:00,
2013-03-13 20:05:00,32.7,-5.1,29.69,East,90,0.0,3.0,19,0.00,,,0.00,Wunderground v.1.13,2013-03-14 00:05:00,
2013-03-13 20:10:00,32.7,-5.1,29.69,East,90,0.0,3.0,19,0.00,,,0.00,Wunderground v.1.13,2013-03-14 00:10:00,
2013-03-13 20:15:00,31.9,-3.7,29.69,East,90,0.0,2.0,21,0.00,,,0.00,Wunderground v.1.13,2013-03-14 00:15:00,
2013-03-13 20:20:00,31.9,-3.7,29.69,East,90,0.0,2.0,21,0.00,,,0.00,Wunderground v.1.13,2013-03-14 00:20:00,
2013-03-13 20:25:00,31.6,2.2,29.69,East,90,0.0,3.0,28,0.00,,,0.00,Wunderground v.1.13,2013-03-14 00:25:00,
2013-03-13 20:30:00,31.6,2.2,29.69,East,90,0.0,3.0,28,0.00,,,0.00,Wunderground v.1.13,2013-03-14 00:30:00,
2013-03-13 20:35:00,31.2,5.4,29.69,East,90,1.0,3.0,33,0.00,,,0.00,Wunderground v.1.13,2013-03-14 00:35:00,
2013-03-13 20:40:00,31.2,5.4,29.69,East,90,1.0,3.0,33,0.00,,,0.00,Wunderground v.1.13,2013-03-14 00:40:00,
2013-03-13 20:45:00,30.7,6.9,29.69,East,90,0.0,2.0,36,0.00,,,0.00,Wunderground v.1.13,2013-03-14 00:45:00,
2013-03-13 20:50:00,30.7,6.9,29.69,East,90,0.0,2.0,36,0.00,,,0.00,Wunderground v.1.13,2013-03-14 00:50:00,
2013-03-13 20:55:00,30.4,5.3,29.69,East,90,1.0,2.0,34,0.00,,,0.00,Wunderground v.1.13,2013-03-14 00:55:00,
2013-03-13 21:00:00,30.4,5.3,29.69,East,90,1.0,2.0,34,0.00,,,0.00,Wunderground v.1.13,2013-03-14 01:00:00,
2013-03-13 21:05:00,30.3,3.2,29.69,East,90,0.0,1.0,31,0.00,,,0.00,Wunderground v.1.13,2013-03-14 01:05:00,
2013-03-13 21:10:00,30.3,3.2,29.69,East,90,0.0,1.0,31,0.00,,,0.00,Wunderground v.1.13,2013-03-14 01:10:00,
2013-03-13 21:15:00,30.3,2.5,29.69,East,90,0.0,1.0,30,0.00,,,0.00,Wunderground v.1.13,2013-03-14 01:15:00,
2013-03-13 21:20:00,30.3,2.5,29.69,East,90,0.0,1.0,30,0.00,,,0.00,Wunderground v.1.13,2013-03-14 01:20:00,
2013-03-13 21:25:00,30.1,1.6,29.69,East,90,1.0,3.0,29,0.00,,,0.00,Wunderground v.1.13,2013-03-14 01:25:00,
2013-03-13 21:30:00,30.1,1.6,29.69,East,90,1.0,3.0,29,0.00,,,0.00,Wunderground v.1.13,2013-03-14 01:30:00,
2013-03-13 21:35:00,30.0,4.3,29.69,East,90,0.0,2.0,33,0.00,,,0.00,Wunderground v.1.13,2013-03-14 01:35:00,
2013-03-13 21:40:00,30.0,4.3,29.69,East,90,0.0,2.0,33,0.00,,,0.00,Wunderground v.1.13,2013-03-14 01:40:00,
2013-03-13 21:45:00,29.7,5.3,29.69,East,90,0.0,2.0,35,0.00,,,0.00,Wunderground v.1.13,2013-03-14 01:45:00,
2013-03-13 21:50:00,29.7,5.3,29.69,East,90,0.0,2.0,35,0.00,,,0.00,Wunderground v.1.13,2013-03-14 01:50:00,
2013-03-13 21:55:00,29.4,4.4,29.69,East,90,0.0,2.0,34,0.00,,,0.00,Wunderground v.1.13,2013-03-14 01:55:00,
2013-03-13 22:00:00,29.4,4.4,29.69,East,90,0.0,2.0,34,0.00,,,0.00,Wunderground v.1.13,2013-03-14 02:00:00,
2013-03-13 22:05:00,29.3,7.4,29.69,East,90,0.0,2.0,39,0.00,,,0.00,Wunderground v.1.13,2013-03-14 02:05:00,
2013-03-13 22:10:00,29.3,7.4,29.69,East,90,0.0,2.0,39,0.00,,,0.00,Wunderground v.1.13,2013-03-14 02:10:00,
2013-03-13 22:15:00,29.0,8.7,29.69,East,90,1.0,3.0,42,0.00,,,0.00,Wunderground v.1.13,2013-03-14 02:15:00,
2013-03-13 22:20:00,29.0,8.7,29.69,East,90,1.0,3.0,42,0.00,,,0.00,Wunderground v.1.13,2013-03-14 02:20:00,
2013-03-13 22:25:00,28.7,10.5,29.69,East,90,0.0,2.0,46,0.00,,,0.00,Wunderground v.1.13,2013-03-14 02:25:00,
2013-03-13 22:30:00,28.7,10.5,29.69,East,90,0.0,2.0,46,0.00,,,0.00,Wunderground v.1.13,2013-03-14 02:30:00,
2013-03-13 22:35:00,28.5,8.8,29.69,N/A,-737280,0.0,0.0,43,0.00,,,0.00,Wunderground v.1.13,2013-03-14 02:35:00,
2013-03-13 22:40:00,28.5,8.8,29.69,N/A,-737280,0.0,0.0,43,0.00,,,0.00,Wunderground v.1.13,2013-03-14 02:40:00,
2013-03-13 22:45:00,28.5,10.3,29.68,East,90,1.0,2.0,46,0.00,,,0.00,Wunderground v.1.13,2013-03-14 02:45:00,
2013-03-13 22:50:00,28.5,10.3,29.68,East,90,1.0,2.0,46,0.00,,,0.00,Wunderground v.1.13,2013-03-14 02:50:00,
2013-03-13 22:55:00,28.5,8.8,29.68,East,90,0.0,2.0,43,0.00,,,0.00,Wunderground v.1.13,2013-03-14 02:55:00,
2013-03-13 23:00:00,28.5,8.8,29.68,East,90,0.0,2.0,43,0.00,,,0.00,Wunderground v.1.13,2013-03-14 03:00:00,
2013-03-13 23:05:00,28.5,7.2,29.68,East,90,0.0,2.0,40,0.00,,,0.00,Wunderground v.1.13,2013-03-14 03:05:00,
2013-03-13 23:10:00,28.5,7.2,29.68,East,90,0.0,2.0,40,0.00,,,0.00,Wunderground v.1.13,2013-03-14 03:10:00,
2013-03-13 23:15:00,28.8,3.9,29.68,East,90,0.0,2.0,34,0.00,,,0.00,Wunderground v.1.13,2013-03-14 03:15:00,
2013-03-13 23:20:00,28.8,3.9,29.68,East,90,0.0,2.0,34,0.00,,,0.00,Wunderground v.1.13,2013-03-14 03:20:00,
2013-03-13 23:25:00,29.0,4.1,29.67,East,90,0.0,2.0,34,0.00,,,0.00,Wunderground v.1.13,2013-03-14 03:25:00,
2013-03-13 23:30:00,29.0,4.1,29.67,East,90,0.0,2.0,34,0.00,,,0.00,Wunderground v.1.13,2013-03-14 03:30:00,
2013-03-13 23:35:00,29.0,4.1,29.67,East,90,0.0,2.0,34,0.00,,,0.00,Wunderground v.1.13,2013-03-14 03:35:00,
2013-03-13 23:40:00,29.0,4.1,29.67,East,90,0.0,2.0,34,0.00,,,0.00,Wunderground v.1.13,2013-03-14 03:40:00,
2013-03-13 23:45:00,28.7,6.8,29.67,East,90,1.0,2.0,39,0.00,,,0.00,Wunderground v.1.13,2013-03-14 03:45:00,
2013-03-13 23:50:00,28.7,6.8,29.67,East,90,1.0,2.0,39,0.00,,,0.00,Wunderground v.1.13,2013-03-14 03:50:00,
2013-03-13 23:55:00,28.5,7.2,29.67,East,90,0.0,2.0,40,0.00,,,0.00,Wunderground v.1.13,2013-03-14 03:55:00,